Flag for Japan Weather past 2 weeks in Fukuoka, Japan

59 °F


Feels Like: 59 °F
Forecast: 61 / 75 °F
Wind: 2 mph from North

Location: Fukuoka Airport

Current Time: Oct 13, 2015 at 9:25:19 PM

Latest Report: Oct 13, 2015 at 9:00 PM

Visibility: 10 mi

Pressure: 30.12 "Hg

Humidity: 63%

Dew point: 46 °F

Location of FukuokaLocation

Historic Weather in Fukuoka — Graph


Fukuoka temperature yesterday

Maximum temperature yesterday: 70 °F (at 3:30 PM)
Minimum temperature yesterday: 59 °F (at 1:00 AM)
Average temperature yesterday: 63 °F

Past Weeks' High & Low Weather Summary

High84 °F (Sep 29, 12:00 PM)94% (Oct 1, 5:00 AM)30.24 "Hg (Oct 1, 5:00 AM)
Low55 °F (Oct 3, 6:30 AM)24% (Oct 7, 3:00 PM)29.53 "Hg (Oct 1, 6:30 PM)
Average67 °F64%30.00 "Hg
* Reported Sep 28 8:00 PM — Oct 13 8:00 PM, Fukuoka, Weather by CustomWeather, © 2015

Note: Actual official high and low records may vary slightly from our data, if they occured in-between our weather recording intervals... More about our weather records


Fukuoka weather history for previous 24 hours

Time TempWeatherWind HumidityBarometerVisibility
8:00 PM
Tue, Oct 13
61 °FPassing clouds.6 mph63%30.09 "HgN/A
7:30 PM63 °FPassing clouds.6 mph56%30.09 "HgN/A
7:00 PM64 °FPassing clouds.6 mph46%30.09 "HgN/A
6:30 PM64 °FPassing clouds.6 mph43%30.07 "HgN/A
6:00 PM64 °FPassing clouds.8 mph49%30.07 "HgN/A
5:30 PM66 °FPassing clouds.9 mph49%30.09 "HgN/A
5:00 PM66 °FPassing clouds.9 mph46%30.09 "HgN/A
4:30 PM68 °FPassing clouds.9 mph46%30.09 "HgN/A
4:00 PM68 °FScattered clouds.12 mph46%30.09 "HgN/A
3:30 PM68 °FScattered clouds.10 mph46%30.09 "HgN/A
3:00 PM68 °FScattered clouds.10 mph46%30.09 "HgN/A
2:30 PM68 °FPassing clouds.8 mph46%30.09 "HgN/A
2:00 PM68 °FScattered clouds.9 mph43%30.09 "HgN/A
1:30 PM68 °FPassing clouds.13 mph43%30.09 "HgN/A
1:00 PM68 °FPassing clouds.13 mph43%30.09 "HgN/A
12:30 PM68 °FPassing clouds.10 mph43%30.12 "HgN/A
12:00 PM68 °FPassing clouds.13 mph43%30.12 "HgN/A
11:30 AM68 °FScattered clouds.10 mph43%30.12 "HgN/A
11:00 AM68 °FScattered clouds.10 mph43%30.12 "HgN/A
10:30 AM68 °FPassing clouds.10 mph43%30.15 "HgN/A
10:00 AM66 °FPassing clouds.12 mph43%30.15 "HgN/A
9:30 AM68 °FPassing clouds.12 mph43%30.15 "HgN/A
9:00 AM66 °FPassing clouds.13 mph43%30.12 "HgN/A
8:30 AM63 °FPassing clouds.6 mph59%30.12 "HgN/A
8:00 AM61 °FPassing clouds.6 mph68%30.12 "HgN/A
7:30 AM59 °FPartly sunny.6 mph72%30.12 "HgN/A
7:00 AM57 °FPartly sunny.6 mph77%30.09 "HgN/A
6:30 AM57 °FBroken clouds.6 mph77%30.09 "HgN/A
5:30 AM57 °FPassing clouds.7 mph77%30.09 "HgN/A
5:00 AM57 °FPassing clouds.6 mph77%30.09 "HgN/A
4:30 AM57 °FPassing clouds.7 mph77%30.09 "HgN/A
4:00 AM59 °FPassing clouds.7 mph72%30.07 "HgN/A
3:30 AM59 °FPassing clouds.5 mph72%30.09 "HgN/A
3:00 AM57 °FPassing clouds.8 mph72%30.09 "HgN/A
2:30 AM57 °FPassing clouds.7 mph77%30.09 "HgN/A
2:00 AM57 °FPassing clouds.6 mph72%30.07 "HgN/A
1:30 AM57 °FPassing clouds.7 mph77%30.07 "HgN/A
1:00 AM57 °FPassing clouds.8 mph72%30.07 "HgN/A
12:30 AM59 °FPassing clouds.10 mph68%30.07 "HgN/A
12:00 AM59 °FPassing clouds.6 mph68%30.07 "HgN/A
11:30 PM
Mon, Oct 12
59 °FPassing clouds.7 mph68%30.07 "HgN/A
11:00 PM61 °FPassing clouds.5 mph63%30.07 "HgN/A
10:30 PM63 °FPassing clouds.5 mph56%30.07 "HgN/A
10:00 PM64 °FPassing clouds.5 mph52%30.07 "HgN/A
9:30 PM64 °FPassing clouds.3 mph52%30.07 "HgN/A
9:00 PM64 °FPassing clouds.5 mph52%30.07 "HgN/A
Weather by CustomWeather, © 2015

See weather overviewHow to use our weather pages